Location: Bazugues
(43.4465°N, 0.3432°E)
Time: 05:44:24
(UTC+00:00)

YAOGAN 1 - Pass Details

Date: 12 January 2026
Orbit: 605 x 607 km, 97.8° (Epoch: 10 February)

Event Time Altitude Azimuth Distance (km) Brightness Sun altitude
Rises 17:24:28 0° 131° (SE) 2,855 5.7 -7.4°
Reaches altitude 10° 17:27:01 10° 116° (ESE) 1,955 4.7 -7.8°
Maximum altitude 17:30:16 22° 66° (ENE) 1,346 3.7 -8.3°
Drops below altitude 10° 17:33:33 10° 16° (NNE) 1,966 4.8 -8.9°
Sets 17:36:06 0° 1° (N) 2,874 5.8 -9.3°
